#timestamp,LO_Frequency,Hit,StdDev 
1594879215.2,286047000.3,N
1594879235.1,286047000.8,N
1594879236.0,286047000.8,N
1594879255.8,286047000.5,N
1594879275.6,286047000.2,N
1594879295.5,286046999.8,N
1594879315.3,286047000.2,N
1594879335.2,286047002.8,N
1594879355.9,286047000.6,N
1594879375.7,286046999.8,N
1594879395.6,286046999.8,N
1594879415.4,286047002.8,N
1594879435.3,286047000.1,N
1594879455.1,286047001.9,N
1594879456.0,286047001.9,N
1594879475.8,286047002.0,N
1594879495.7,286047002.4,N
1594879515.5,286047002.8,N
1594879535.4,286047000.0,N
1594879555.2,286047002.1,N
1594879575.0,286047004.4,Y
1594879575.9,286047004.4,P
1594879595.8,286047002.1,N
1594879615.6,286047002.8,N
1594879635.5,286047000.0,N
1594879655.3,286047000.0,N
1594879675.1,286047002.8,N
1594879695.9,286046999.9,N
1594879715.7,286046999.7,N
1594879735.5,286047001.0,N
1594879755.4,286046999.8,N
1594879775.2,286047002.4,N
1594879795.1,286047001.0,N
1594879796.0,286047001.0,N
1594879815.8,286047000.4,N
1594879835.6,286047000.0,N
1594879855.5,286047002.2,N
1594879875.3,286047000.3,N
1594879895.2,286046999.7,N
1594879915.9,286047001.5,N
1594879935.7,286047002.7,N
1594879955.6,286047001.0,N
1594879975.4,286047000.2,N
1594879995.2,286046999.9,N
1594880015.1,286047000.1,N
1594880016.0,286047000.1,N
1594880035.8,286046999.7,N
1594880055.7,286047001.4,N
1594880075.5,286047000.2,N
1594880095.3,286047001.0,N
1594880115.2,286047000.3,N
1594880135.0,286047000.1,N
1594880135.9,286047000.1,N
1594880155.8,286047000.6,N
1594880175.6,286047001.1,N
1594880195.4,286046998.6,N
1594880215.3,286047001.1,N
1594880235.1,286046998.3,N
1594880255.8,286046999.0,N
1594880275.7,286046999.1,N
1594880295.5,286046998.6,N
1594880315.4,286046998.3,N
1594880335.2,286046998.1,N
1594880355.0,286046998.3,N
1594880355.9,286046998.3,N
1594880375.8,286047001.2,N
1594880395.6,286046998.2,N
1594880415.5,286047001.1,N
1594880435.3,286046998.1,N
1594880455.1,286047000.0,N
1594880475.9,286047003.5,N
1594880495.7,286047003.8,N
1594880515.6,286047004.0,N
1594880535.4,286047005.4,Y
1594880555.2,286047006.5,P
1594880575.1,286047006.9,N
1594880576.0,286047006.9,N
1594880595.8,286047005.6,N
1594880615.7,286047007.2,N
1594880635.5,286047004.5,N
1594880655.3,286047003.0,N
1594880675.2,286047003.1,N
1594880695.0,286047004.7,N
1594880695.9,286047004.7,N
1594880715.8,286047006.6,Y
1594880735.6,286047000.3,P
1594880755.4,286046999.6,N
1594880775.3,286046998.6,N
1594880795.1,286046999.9,N
1594880815.9,286047000.8,N
1594880835.7,286046999.7,N
1594880855.5,286047002.8,N
1594880875.4,286047002.7,N
1594880895.2,286046999.9,N
1594880915.1,286046999.7,N
1594880916.0,286046999.7,N
1594880935.8,286047000.6,N
1594880955.6,286046996.6,N
1594880975.5,286046995.2,N
1594880995.3,286046995.6,N
1594881015.1,286046997.6,N
1594881035.9,286046996.6,N
1594881055.7,286046999.0,N
1594881075.6,286046998.8,N
1594881095.4,286046998.3,N
1594881115.2,286047001.2,N
1594881135.1,286047000.8,N
1594881136.0,286047000.8,N
1594881155.8,286046998.9,N
1594881175.6,286046999.7,N
1594881195.5,286046998.3,N
1594881215.3,286046997.0,N
1594881235.2,286046998.5,N
1594881255.9,286047000.5,N
1594881275.7,286046999.9,N
1594881295.6,286047001.1,N
1594881315.4,286046998.3,N
1594881335.2,286046998.8,N
1594881355.1,286046996.9,N
1594881356.0,286046996.9,N
1594881375.8,286046997.7,N
1594881395.7,286047000.3,N
1594881415.5,286047001.1,N
1594881435.3,286047000.6,N
1594881455.2,286046998.6,N
1594881475.0,286046996.6,N
1594881475.9,286046996.6,N
1594881495.8,286046994.9,N
1594881515.6,286046996.1,N
1594881535.4,286046995.9,N
1594881555.3,286046996.2,N
1594881575.1,286046999.2,N
1594881595.9,286046996.7,N
1594881615.7,286046997.4,N
1594881635.5,286046999.3,N
1594881655.4,286047000.2,N
1594881675.2,286047000.3,N
1594881695.0,286046998.1,N
1594881696.0,286046998.1,N
1594881715.8,286046996.6,N
1594881735.6,286046999.2,N
1594881755.5,286046996.9,N
1594881775.3,286046994.9,N
1594881795.1,286046997.9,N
1594881815.9,286046997.4,N
1594881835.7,286046998.7,N
1594881855.6,286046999.1,N
1594881875.4,286046998.4,N
1594881895.2,286046996.6,N
1594881915.1,286046996.9,N
1594881916.0,286046996.9,N
1594881935.8,286046999.1,N
1594881955.6,286046996.8,N
1594881975.5,286046995.3,Y
1594881995.3,286046999.2,P
1594882015.2,286046998.8,N
1594882035.9,286046996.8,P
1594882055.7,286046996.6,Y
1594882075.6,286047002.4,P
1594882095.4,286047000.4,N
1594882115.3,286047000.8,N
1594882135.1,286047001.1,N
1594882155.8,286046998.3,N
1594882175.7,286047000.7,N
1594882195.5,286046998.1,N
1594882215.4,286047001.1,N
1594882235.2,286047001.2,N
1594882255.0,286047001.2,N
1594882255.9,286047001.2,N
1594882275.8,286047000.0,N
1594882295.6,286047002.8,N
1594882315.4,286047001.9,N
1594882335.3,286047001.3,N
1594882355.1,286047003.9,N
1594882375.9,286047002.8,N
1594882395.7,286046998.9,N
1594882415.5,286046998.2,N
1594882435.4,286047001.1,N
1594882455.2,286047000.8,N
1594882475.0,286047000.7,N
1594882476.0,286047000.7,N
1594882495.8,286047000.8,N
1594882515.6,286046998.6,N
1594882535.5,286046998.9,N
1594882555.3,286047002.4,N
1594882575.1,286047001.3,N
1594882595.9,286047006.0,Y
1594882615.7,286047003.3,P
1594882635.6,286047002.0,N
1594882655.4,286047000.1,N
1594882675.2,286047000.4,N
1594882695.1,286047000.8,N
1594882696.0,286047000.8,N
1594882715.8,286046998.5,N
1594882735.7,286046999.0,N
1594882755.5,286046999.3,N
1594882775.3,286046999.3,N
1594882795.2,286046999.9,N
